Hourly Weather Roundup
Issued by NWS

Home | Current Version | Previous Version | Text Only | Print | Product List | Glossary On
Versions: 1 2 3 4 5 6 7 8 9 10 11 12 13 14 15 16 17 18 19 20 21 22 23 24 25 26 27 28 29 30 31 32 33 34 35 36 37 38 39 40 41 42 43 44 45 46 47 48 49 50
464
NZUS43 KILX 210610
HWRCRS

NWR Hourly Weather Roundup
National Weather Service Lincoln IL
100 AM CDT SAT APR 21 2018


CITY           SKY/WX    TMP DP  RH WIND       PRES   REMARKS
Champaign      FAIR      45  26  47 NE9       30.40S
Lawrenceville  FAIR      46  28  49 NE8       30.39S
Peoria         FAIR      48  26  42 E7        30.40S
Springfield    FAIR      46  29  51 E6        30.38F
$$


CITY           SKY/WX    TMP DP  RH WIND       PRES   REMARKS
Bloomington    FAIR      42  26  53 E7        30.41S
Danville       FAIR      43  26  51 NE8       30.39F
Decatur        FAIR      40  27  59 E5        30.39S
Effingham      FAIR      49  27  43 NE5       30.39F
Flora          FAIR      48  30  49 NE6       30.37F
Galesburg      FAIR      52  29  41 E5        30.40S
Jacksonville   CLOUDY    41  29  63 E8        30.37S
Lacon          FAIR      45  26  47 E9        30.41S
La Salle       FAIR      44  26  50 NE6       30.43S
Lincoln        FAIR      40  30  66 CALM      30.39F
Litchfield     PTCLDY    46  27  46 E8        30.35F

CITY           SKY/WX    TMP DP  RH WIND       PRES   REMARKS
Macomb         CLOUDY    42  30  61 E7        30.39F
Mattoon        FAIR      43  27  53 E5        30.38F
Moline         FAIR      42  33  70 E5        30.39F
Olney          FAIR      46  23  39 NE6       30.38S
Paris          FAIR      44  27  52 E6        30.41F
Pontiac        FAIR      40  27  60 E10       30.43S WCI  34
Quincy         MOCLDY    47  24  40 E7        30.35S
Rantoul        FAIR      44  29  55 NE7       30.41S
Robinson       FAIR      38  32  79 CALM      30.41S
Taylorville    FAIR      47  25  41 E9        30.37F
Terre Haute    FAIR      40  32  73 NE5       30.40S
$$


CITY           SKY/WX    TMP DP  RH WIND       PRES   REMARKS
Burlington     CLOUDY    50  23  34 E7        30.36F
Chicago        MOCLDY    43  19  38 E3        30.44S
Des Moines     CLOUDY    52  22  30 E6        30.34F
Evansville     FAIR      48  31  51 NE8       30.37S
Indianapolis   FAIR      45  24  43 E6        30.42R
Kansas City    CLOUDY    53  22  29 E12       30.27R
Milwaukee      FAIR      37  20  50 CALM      30.45S
St Louis       MOCLDY    46  29  51 E5        30.34F
$$





USA.gov is the U.S. government's official web portal to all federal, state and local government web resources and services.